QPF
0.00 0.00 0.00 0.00 0.00 0.00 0.00 0.00 0.00 0.00 0.00 0.00 0.00 0.00 0.00 0.00 0.00 0.00 0.00 0.00 0.00 0.00 0.00 0.00 0.00 0.00 0.00 0.00 0.00 0.00 0.00 0.00 0.00 0.00 0.00 0.00 0.01 0.03 0.05 0.02 0.06 0.11 0.09 0.08 0.01
0.00 0.00 0.00 0.00 0.00 0.00 0.00 0.00 0.00 0.00 0.00 0.00 0.00 0.00 0.00 0.00 0.00 0.00 0.00 0.00 0.00 0.00 0.00 0.00 0.00 0.00 0.00 0.00 0.00 0.00 0.00 0.00 0.00 0.00 0.00 0.00 0.00 0.00 0.00 0.00 0.02 0.02 0.02 0.04 0.01
0.00 0.00 0.00 0.00 0.00 0.00 0.00 0.00 0.00 0.00 0.00 0.00 0.00 0.00 0.00 0.00 0.00 0.00 0.00 0.00 0.00 0.00 0.00 0.00 0.00 0.00 0.00 0.00 0.00 0.00 0.00 0.00 0.00 0.00 0.00 0.00 0.00 0.00 0.00 0.00 0.00 0.01 0.00 0.01 0.01
0.00 0.00 0.00 0.00 0.00 0.00 0.00 0.00 0.00 0.00 0.00 0.00 0.00 0.00 0.00 0.00 0.00 0.00 0.00 0.00 0.00 0.00 0.00 0.00 0.00 0.00 0.00 0.00 0.00 0.00 0.00 0.00 0.00 0.00 0.00 0.00 0.00 0.00 0.00 0.00 0.00 0.00 0.00 0.00 0.00
0.00 0.00 0.00 0.00 0.00 0.00 0.00 0.00 0.00 0.00 0.00 0.00 0.00 0.00 0.00 0.00 0.00 0.00 0.00 0.00 0.00 0.00 0.00 0.00 0.00 0.00 0.00 0.00 0.00 0.00 0.00 0.00 0.00 0.00 0.00 0.00 0.00 0.00 0.00 0.00 0.00 0.00 0.00 0.00 0.00
0.00 0.00 0.00 0.00 0.00 0.00 0.00 0.00 0.00 0.00 0.00 0.00 0.00 0.00 0.00 0.00 0.00 0.00 0.00 0.00 0.00 0.00 0.00 0.00 0.00 0.00 0.00 0.00 0.00 0.00 0.00 0.00 0.00 0.00 0.00 0.00 0.00 0.00 0.00 0.00 0.00 0.00 0.00 0.00 0.00
0.00 0.00 0.00 0.00 0.00 0.00 0.00 0.00 0.00 0.00 0.00 0.00 0.00 0.00 0.00 0.00 0.00 0.00 0.00 0.00 0.00 0.00 0.00 0.00 0.00 0.00 0.00 0.00 0.00 0.00 0.00 0.00 0.00 0.00 0.00 0.00 0.00 0.00 0.00 0.00 0.00 0.00 0.00 0.00 0.00
0.00 0.00 0.00 0.00 0.00 0.00 0.00 0.00 0.00 0.00 0.00 0.00 0.00 0.00 0.00 0.00 0.00 0.00 0.00 0.00 0.00 0.00 0.00 0.00 0.00 0.00 0.00 0.00 0.00 0.00 0.00 0.00 0.00 0.00 0.00 0.00 0.00 0.00 0.00 0.00 0.00 0.00 0.00 0.00 0.00
0.00 0.00 0.00 0.00 0.00 0.00 0.00 0.00 0.00 0.00 0.00 0.00 0.00 0.00 0.00 0.00 0.00 0.00 0.00 0.00 0.00 0.00 0.00 0.00 0.00 0.00 0.00 0.00 0.00 0.00 0.00 0.00 0.00 0.00 0.00 0.00 0.00 0.00 0.00 0.00 0.00 0.00 0.00 0.00 0.00
0.00 0.00 0.00 0.00 0.00 0.00 0.00 0.00 0.00 0.00 0.00 0.00 0.00 0.00 0.00 0.00 0.00 0.00 0.00 0.00 0.00 0.00 0.00 0.00 0.00 0.00 0.00 0.00 0.00 0.00 0.00 0.00 0.00 0.00 0.00 0.00 0.00 0.00 0.00 0.00 0.00 0.00 0.00 0.00 0.00
0.00 0.00 0.00 0.00 0.00 0.00 0.00 0.00 0.00 0.00 0.00 0.00 0.00 0.00 0.00 0.00 0.00 0.00 0.00 0.00 0.00 0.00 0.00 0.00 0.00 0.00 0.00 0.00 0.00 0.00 0.00 0.00 0.00 0.00 0.00 0.00 0.00 0.00 0.00 0.00 0.00 0.00 0.00 0.00 0.00
0.00 0.00 0.00 0.00 0.00 0.00 0.00 0.00 0.00 0.00 0.00 0.00 0.00 0.00 0.00 0.00 0.00 0.00 0.00 0.00 0.00 0.00 0.00 0.00 0.00 0.00 0.00 0.00 0.00 0.00 0.00 0.00 0.00 0.00 0.00 0.00 0.00 0.00 0.00 0.00 0.00 0.00 0.00 0.00 0.00
0.00 0.00 0.00 0.00 0.00 0.00 0.00 0.00 0.00 0.00 0.00 0.00 0.00 0.00 0.00 0.00 0.00 0.00 0.00 0.00 0.00 0.00 0.00 0.00 0.00 0.00 0.00 0.00 0.00 0.00 0.00 0.00 0.00 0.00 0.00 0.00 0.00 0.00 0.00 0.00 0.00 0.00 0.00 0.00 0.00
0.00 0.00 0.00 0.00 0.00 0.00 0.00 0.00 0.00 0.00 0.00 0.00 0.00 0.00 0.00 0.00 0.00 0.00 0.00 0.00 0.00 0.00 0.00 0.00 0.00 0.00 0.00 0.00 0.00 0.00 0.00 0.00 0.00 0.00 0.00 0.00 0.00 0.00 0.00 0.00 0.00 0.00 0.00 0.00 0.00
0.00 0.00 0.00 0.00 0.00 0.00 0.00 0.00 0.00 0.00 0.00 0.00 0.00 0.00 0.00 0.00 0.00 0.00 0.00 0.00 0.00 0.00 0.00 0.00 0.00 0.00 0.00 0.00 0.00 0.00 0.00 0.00 0.00 0.00 0.00 0.00 0.00 0.00 0.00 0.00 0.00 0.00 0.00 0.00 0.00
0.00 0.00 0.00 0.00 0.00 0.00 0.00 0.00 0.00 0.00 0.00 0.00 0.00 0.00 0.00 0.00 0.00 0.00 0.00 0.00 0.00 0.00 0.00 0.00 0.00 0.00 0.00 0.00 0.00 0.00 0.00 0.00 0.00 0.00 0.00 0.00 0.00 0.00 0.00 0.00 0.00 0.00 0.00 0.00 0.00
0.00 0.00 0.00 0.00 0.00 0.00 0.00 0.00 0.00 0.00 0.00 0.00 0.00 0.00 0.00 0.00 0.00 0.00 0.00 0.00 0.00 0.00 0.00 0.00 0.00 0.00 0.00 0.00 0.00 0.00 0.00 0.00 0.00 0.00 0.00 0.00 0.00 0.00 0.00 0.00 0.00 0.00 0.00 0.00 0.00
0.00 0.00 0.00 0.00 0.00 0.00 0.00 0.00 0.00 0.00 0.00 0.00 0.00 0.00 0.00 0.00 0.00 0.00 0.00 0.00 0.00 0.00 0.00 0.00 0.00 0.00 0.00 0.00 0.00 0.00 0.00 0.00 0.00 0.00 0.00 0.00 0.00 0.00 0.00 0.00 0.00 0.00 0.00 0.00 0.00
0.00 0.00 0.00 0.00 0.00 0.00 0.00 0.00 0.00 0.00 0.00 0.00 0.00 0.00 0.00 0.00 0.00 0.00 0.00 0.00 0.00 0.00 0.00 0.00 0.00 0.00 0.00 0.00 0.00 0.00 0.00 0.00 0.00 0.00 0.00 0.00 0.00 0.00 0.00 0.00 0.00 0.00 0.00 0.00 0.00
0.00 0.00 0.00 0.00 0.00 0.00 0.00 0.00 0.00 0.00 0.00 0.00 0.00 0.00 0.00 0.00 0.00 0.00 0.00 0.00 0.00 0.00 0.00 0.00 0.00 0.00 0.00 0.00 0.00 0.00 0.00 0.00 0.00 0.00 0.00 0.00 0.00 0.00 0.00 0.00 0.00 0.00 0.00 0.00 0.00
0.00 0.00 0.00 0.00 0.00 0.00 0.00 0.00 0.00 0.00 0.00 0.00 0.00 0.00 0.00 0.00 0.00 0.00 0.00 0.00 0.00 0.00 0.00 0.00 0.00 0.00 0.00 0.00 0.00 0.00 0.00 0.00 0.00 0.00 0.00 0.00 0.00 0.00 0.00 0.00 0.00 0.00 0.00 0.00 0.00
0.00 0.00 0.00 0.00 0.00 0.00 0.00 0.00 0.00 0.00 0.00 0.00 0.00 0.00 0.00 0.00 0.00 0.00 0.00 0.00 0.00 0.00 0.00 0.00 0.00 0.00 0.00 0.00 0.00 0.00 0.00 0.00 0.00 0.00 0.00 0.00 0.00 0.00 0.00 0.00 0.00 0.00 0.00 0.00 0.00
0.00 0.00 0.00 0.00 0.00 0.00 0.00 0.00 0.00 0.00 0.00 0.00 0.00 0.00 0.00 0.00 0.00 0.00 0.00 0.00 0.00 0.00 0.00 0.00 0.00 0.00 0.00 0.00 0.00 0.00 0.00 0.00 0.00 0.00 0.00 0.00 0.00 0.00 0.00 0.00 0.00 0.00 0.00 0.00 0.00
0.01 0.01 0.01 0.00 0.00 0.00 0.00 0.00 0.00 0.00 0.00 0.00 0.00 0.00 0.00 0.00 0.00 0.00 0.00 0.00 0.00 0.00 0.00 0.00 0.00 0.00 0.00 0.00 0.00 0.00 0.00 0.00 0.00 0.00 0.00 0.00 0.00 0.00 0.00 0.00 0.00 0.00 0.00 0.00 0.00
0.00 0.00 0.00 0.00 0.00 0.00 0.00 0.00 0.00 0.00 0.00 0.00 0.00 0.00 0.00 0.00 0.00 0.00 0.00 0.00 0.00 0.00 0.00 0.00 0.00 0.00 0.00 0.00 0.00 0.00 0.00 0.00 0.00 0.00 0.00 0.00 0.00 0.00 0.00 0.00 0.00 0.00 0.00 0.00 0.00
0.00 0.00 0.00 0.00 0.00 0.00 0.00 0.00 0.00 0.00 0.00 0.00 0.00 0.00 0.00 0.00 0.00 0.00 0.00 0.00 0.00 0.00 0.00 0.00 0.00 0.00 0.00 0.00 0.00 0.00 0.00 0.00 0.00 0.00 0.00 0.00 0.00 0.00 0.00 0.00 0.00 0.00 0.00 0.00 0.00
0.00 0.00 0.00 0.00 0.01 0.01 0.01 0.00 0.00 0.00 0.00 0.00 0.00 0.00 0.00 0.00 0.00 0.00 0.00 0.00 0.00 0.00 0.00 0.00 0.00 0.00 0.00 0.00 0.00 0.00 0.00 0.00 0.00 0.00 0.00 0.00 0.00 0.00 0.00 0.00 0.00 0.00 0.00 0.00 0.00
MSLP
1021.26 1021.24 1021.31 1020.82 1020.39 1020.08 1020.09 1020.01 1019.79 1019.37 1019.21 1018.82 1018.24 1017.83 1017.38 1016.81 1016.03 1015.07 1014.87 1015.51 1014.63 1013.62 1013.55 1013.17 1012.97 1013.29 1013.66 1015.34 1016.41 1017.39 1020.65 1023.80 1024.68 1024.90 1026.03 1026.05 1026.31 1026.69 1027.51 1027.16 1027.76 1028.36 1028.93 1029.71 1029.43
1021.40 1021.23 1021.32 1021.10 1020.57 1020.04 1019.97 1019.84 1019.69 1019.27 1019.12 1018.91 1018.28 1017.69 1017.28 1017.13 1016.66 1015.46 1014.84 1014.60 1013.91 1013.09 1013.07 1013.15 1014.01 1014.35 1016.15 1017.67 1018.52 1019.64 1022.84 1024.62 1024.96 1025.48 1026.21 1026.90 1026.87 1027.20 1028.03 1028.37 1029.05 1029.23 1029.65 1029.88 1029.52
1021.38 1021.29 1021.30 1021.09 1020.86 1020.19 1019.77 1019.76 1019.57 1019.17 1018.92 1018.79 1018.12 1017.61 1017.30 1017.08 1016.86 1016.22 1014.92 1014.19 1013.42 1012.95 1013.03 1013.71 1014.33 1015.26 1018.08 1019.17 1020.99 1021.88 1023.68 1025.19 1026.09 1026.31 1026.62 1027.26 1027.68 1028.14 1028.28 1029.27 1030.08 1030.11 1030.39 1030.48 1030.13
1021.32 1021.32 1021.26 1021.06 1021.15 1020.52 1019.67 1019.63 1019.47 1019.23 1018.91 1018.73 1017.97 1017.44 1017.02 1016.84 1017.69 1016.65 1015.74 1014.62 1013.54 1013.04 1013.17 1014.55 1015.37 1017.05 1019.63 1021.28 1022.18 1022.41 1025.01 1025.61 1026.57 1026.84 1027.12 1027.53 1028.52 1029.27 1029.49 1030.63 1030.77 1030.72 1030.89 1030.85 1030.94
1021.38 1021.23 1021.19 1021.21 1021.03 1020.95 1019.73 1019.40 1019.40 1019.16 1018.98 1018.60 1017.89 1017.24 1017.02 1017.53 1018.09 1016.96 1016.23 1014.94 1013.68 1013.28 1014.60 1015.81 1017.25 1018.59 1020.41 1022.31 1023.13 1024.22 1025.83 1026.42 1027.05 1027.52 1027.91 1028.35 1029.46 1030.06 1031.01 1031.08 1031.14 1031.42 1031.65 1031.72 1031.70
1021.40 1021.33 1021.04 1021.32 1020.74 1021.16 1020.02 1019.27 1019.26 1018.94 1019.01 1018.63 1017.95 1017.39 1017.52 1018.22 1017.78 1017.44 1016.70 1015.49 1015.05 1014.44 1015.52 1015.75 1018.58 1019.45 1021.20 1022.88 1023.62 1025.78 1026.37 1027.35 1027.80 1028.00 1028.65 1028.61 1030.26 1030.29 1031.99 1031.68 1031.69 1031.98 1032.48 1032.54 1032.44
1021.23 1021.38 1021.03 1021.10 1020.57 1021.01 1020.33 1019.39 1019.02 1018.69 1018.82 1018.55 1018.18 1017.95 1018.40 1018.43 1017.93 1017.50 1016.96 1016.69 1016.26 1016.06 1016.50 1017.45 1018.04 1019.09 1022.04 1023.70 1025.09 1026.20 1026.71 1028.21 1028.61 1028.77 1029.56 1029.31 1031.17 1032.07 1032.12 1032.04 1032.30 1032.72 1032.92 1032.92 1032.87
1021.05 1021.15 1021.08 1020.99 1020.37 1020.85 1020.44 1019.55 1018.78 1018.59 1018.52 1018.26 1018.06 1018.23 1018.62 1017.89 1017.79 1017.52 1017.27 1017.11 1016.85 1016.77 1016.84 1017.80 1018.34 1020.21 1022.66 1024.25 1025.91 1026.57 1027.50 1028.69 1029.24 1029.25 1029.63 1030.02 1032.70 1032.42 1032.42 1032.35 1032.86 1033.16 1033.26 1033.09 1033.23
1020.86 1020.91 1021.11 1020.82 1020.30 1020.57 1020.41 1019.47 1018.62 1018.34 1018.30 1018.00 1018.23 1018.62 1018.98 1018.16 1018.30 1018.52 1018.33 1018.45 1018.24 1017.99 1018.01 1017.94 1018.78 1021.83 1023.75 1025.40 1026.76 1027.67 1028.57 1028.99 1029.23 1029.17 1029.57 1030.32 1032.59 1032.58 1032.58 1032.77 1033.12 1033.60 1033.55 1033.37 1033.63
1020.82 1020.92 1020.99 1020.56 1020.18 1020.28 1020.18 1019.51 1018.43 1018.11 1018.09 1018.19 1018.89 1019.35 1019.44 1019.88 1019.37 1019.32 1018.69 1018.55 1019.10 1019.16 1019.38 1020.41 1021.72 1023.33 1025.37 1026.23 1027.42 1028.18 1029.10 1029.54 1029.65 1029.94 1030.09 1031.09 1032.26 1032.83 1033.13 1033.54 1033.44 1033.89 1033.79 1033.67 1033.80
1020.77 1020.72 1021.05 1020.36 1020.14 1020.13 1020.24 1019.31 1019.34 1019.20 1019.42 1020.19 1020.43 1020.35 1020.15 1019.92 1019.55 1019.90 1019.59 1019.30 1020.04 1021.23 1022.48 1023.11 1023.84 1025.13 1025.84 1026.27 1026.64 1027.79 1028.87 1029.62 1030.21 1030.34 1030.92 1031.99 1032.69 1033.04 1033.29 1033.75 1033.86 1033.74 1033.70 1033.76 1033.80
1020.91 1020.58 1021.01 1020.27 1020.22 1020.21 1020.70 1020.46 1019.83 1019.64 1020.36 1020.44 1020.43 1020.36 1020.17 1020.32 1020.39 1020.52 1019.96 1020.75 1021.92 1023.75 1023.99 1024.61 1026.12 1026.58 1026.50 1026.57 1027.01 1027.62 1028.79 1030.22 1030.60 1030.63 1031.05 1032.61 1033.12 1033.27 1033.36 1033.51 1033.31 1033.45 1033.77 1034.02 1034.06
1021.00 1020.76 1020.72 1020.18 1020.31 1020.24 1020.68 1020.47 1020.02 1019.85 1020.37 1020.92 1020.75 1020.55 1020.54 1020.63 1021.69 1021.78 1021.56 1022.51 1023.58 1024.97 1025.56 1026.42 1027.34 1026.88 1026.96 1027.55 1027.93 1028.73 1028.90 1029.77 1030.46 1031.20 1031.78 1032.66 1033.34 1033.17 1033.04 1033.13 1033.30 1033.63 1033.84 1033.97 1034.04
1020.93 1020.71 1020.50 1019.95 1020.54 1020.68 1020.56 1020.42 1020.29 1020.38 1021.16 1021.59 1021.07 1020.81 1020.70 1021.09 1022.23 1022.24 1022.38 1023.11 1024.61 1026.15 1026.66 1027.57 1027.72 1027.61 1027.78 1028.10 1028.53 1029.25 1029.36 1029.84 1030.69 1031.51 1032.52 1032.76 1033.40 1032.77 1032.73 1033.00 1033.24 1033.64 1034.10 1034.05 1033.95
1020.66 1020.91 1020.69 1019.78 1020.59 1020.94 1020.57 1020.53 1020.33 1020.83 1022.14 1022.28 1021.35 1021.02 1021.23 1021.84 1022.83 1022.89 1022.90 1023.31 1025.62 1026.85 1027.31 1028.87 1028.55 1028.35 1028.47 1028.90 1028.82 1029.58 1029.90 1030.41 1031.19 1032.07 1032.79 1033.30 1033.74 1031.92 1032.20 1032.81 1032.85 1033.48 1033.88 1033.97 1033.90
1020.53 1020.83 1020.93 1020.07 1020.87 1020.86 1020.69 1020.47 1020.70 1022.60 1022.35 1022.31 1021.78 1021.72 1021.99 1022.61 1023.28 1023.58 1023.68 1024.07 1026.09 1027.23 1028.07 1029.22 1029.06 1029.15 1029.09 1029.04 1029.23 1029.62 1030.52 1031.54 1032.38 1033.00 1033.40 1032.87 1033.29 1031.81 1031.93 1031.16 1032.09 1032.85 1033.44 1033.73 1033.78
1020.34 1020.82 1020.88 1020.27 1021.05 1020.87 1020.66 1021.14 1022.91 1024.37 1023.04 1022.80 1022.26 1022.44 1022.76 1023.41 1023.92 1024.24 1024.86 1025.90 1026.88 1028.22 1029.44 1029.88 1030.10 1029.78 1029.40 1029.47 1029.73 1030.59 1031.66 1033.58 1034.32 1034.48 1034.02 1033.05 1033.24 1030.59 1030.64 1030.53 1030.79 1031.83 1032.77 1033.32 1033.65
1020.32 1020.75 1020.82 1020.94 1021.04 1020.92 1020.95 1022.68 1023.90 1023.85 1023.34 1022.76 1022.43 1022.86 1023.54 1023.86 1024.49 1025.06 1025.60 1026.69 1027.53 1027.92 1029.70 1030.33 1031.02 1030.61 1030.29 1030.21 1030.55 1031.43 1032.37 1033.64 1034.75 1035.36 1034.59 1033.58 1032.57 1030.51 1030.24 1030.19 1030.42 1031.19 1032.20 1033.01 1033.39
1020.24 1021.05 1021.43 1021.30 1020.77 1020.81 1021.87 1023.87 1023.58 1023.47 1022.81 1022.89 1022.57 1023.29 1024.08 1024.46 1024.72 1025.42 1026.30 1026.89 1027.29 1027.91 1028.94 1030.30 1031.12 1030.94 1030.67 1030.54 1030.98 1031.90 1032.95 1034.00 1034.87 1035.92 1035.38 1033.52 1031.97 1030.63 1030.56 1030.71 1030.97 1031.65 1032.48 1033.08 1033.16
1019.90 1021.04 1022.01 1021.10 1020.95 1021.65 1023.17 1023.38 1023.23 1022.48 1022.14 1022.38 1022.25 1022.88 1024.07 1024.82 1025.37 1025.91 1026.51 1026.84 1027.39 1027.75 1028.28 1029.71 1031.30 1031.46 1031.15 1031.01 1031.62 1032.16 1033.64 1034.74 1035.74 1036.78 1036.08 1034.21 1032.96 1031.78 1031.29 1031.47 1031.71 1032.15 1032.57 1032.77 1032.93
1019.78 1021.43 1022.04 1021.12 1021.58 1022.73 1024.21 1023.16 1022.55 1021.69 1021.52 1021.80 1022.01 1022.70 1023.60 1024.57 1025.48 1026.17 1026.65 1026.95 1027.16 1028.02 1028.49 1029.51 1030.41 1032.27 1031.82 1031.89 1032.21 1033.24 1034.24 1035.65 1036.57 1037.15 1036.38 1035.36 1032.80 1031.54 1031.30 1031.29 1031.66 1031.89 1032.15 1032.40 1032.55
1019.81 1022.14 1022.48 1021.78 1023.01 1024.30 1024.22 1022.62 1021.54 1021.06 1021.11 1021.23 1021.53 1022.10 1023.20 1024.27 1025.43 1026.26 1026.72 1026.98 1027.00 1027.63 1028.96 1029.77 1031.09 1032.44 1032.49 1032.60 1032.86 1033.47 1034.67 1035.78 1037.25 1037.77 1037.16 1035.98 1032.95 1031.48 1031.17 1031.14 1031.58 1031.96 1032.25 1032.41 1032.46
1019.91 1022.51 1022.84 1022.17 1023.61 1024.71 1023.58 1022.37 1021.15 1020.75 1020.88 1020.99 1021.56 1021.69 1022.76 1024.15 1025.51 1026.41 1026.94 1027.38 1027.27 1027.87 1028.95 1029.74 1031.52 1032.87 1033.37 1033.61 1033.69 1034.21 1035.45 1036.31 1036.94 1037.37 1036.70 1035.95 1033.02 1031.43 1031.19 1031.25 1031.66 1032.17 1032.54 1032.77 1032.85
1020.48 1023.15 1023.74 1023.64 1023.97 1023.63 1023.20 1022.31 1021.30 1020.46 1020.58 1020.64 1021.58 1021.97 1023.09 1024.49 1025.21 1026.71 1027.42 1027.79 1027.62 1028.13 1028.92 1029.55 1031.61 1032.52 1033.00 1032.90 1033.47 1034.96 1035.62 1036.40 1036.34 1037.43 1036.12 1034.61 1032.95 1032.03 1031.88 1032.07 1032.45 1032.70 1032.86 1032.97 1033.05
1019.82 1021.92 1021.75 1023.47 1023.74 1023.23 1022.57 1022.02 1021.40 1020.77 1020.49 1020.69 1021.73 1021.92 1022.70 1024.89 1025.74 1026.92 1027.78 1028.14 1028.28 1028.58 1029.48 1030.27 1032.08 1033.07 1033.23 1033.10 1033.38 1033.90 1034.69 1035.58 1035.67 1035.17 1034.96 1033.64 1033.14 1032.29 1032.22 1032.49 1032.79 1033.15 1033.35 1033.42 1033.60
1019.10 1020.49 1021.48 1021.71 1022.63 1022.98 1022.34 1022.07 1021.31 1020.94 1020.67 1021.00 1021.75 1022.27 1022.85 1023.97 1024.54 1026.31 1027.07 1027.83 1027.99 1029.20 1030.23 1031.11 1032.73 1033.39 1033.80 1033.48 1033.51 1033.61 1033.76 1034.17 1034.49 1034.16 1033.94 1033.50 1033.03 1032.67 1032.76 1032.96 1033.41 1033.78 1033.94 1034.07 1034.23
1017.89 1018.54 1019.22 1021.64 1022.19 1022.65 1022.12 1021.79 1021.33 1021.07 1021.37 1021.17 1021.76 1022.57 1023.69 1024.44 1024.86 1025.36 1026.40 1027.09 1027.67 1028.79 1030.70 1031.64 1032.91 1034.12 1034.56 1033.93 1033.38 1032.71 1031.59 1032.28 1032.51 1032.43 1032.36 1032.96 1032.54 1032.86 1033.54 1033.84 1034.14 1034.42 1034.64 1034.80 1034.96
Thickness
5677 5678 5678 5684 5687 5692 5691 5691 5692 5693 5691 5690 5694 5696 5697 5698 5700 5703 5697 5700 5713 5725 5728 5732 5735 5733 5731 5716 5713 5711 5666 5644 5650 5651 5644 5654 5646 5650 5645 5646 5645 5641 5638 5633 5639
5672 5675 5676 5680 5685 5692 5693 5694 5694 5694 5693 5691 5696 5699 5700 5700 5697 5698 5707 5711 5721 5731 5732 5731 5723 5723 5704 5698 5694 5683 5648 5648 5657 5652 5646 5646 5647 5646 5639 5638 5634 5635 5635 5636 5639
5668 5672 5673 5678 5681 5689 5695 5695 5695 5695 5695 5693 5700 5701 5702 5704 5695 5692 5710 5716 5727 5733 5734 5729 5726 5719 5689 5688 5672 5670 5651 5653 5648 5652 5650 5643 5640 5641 5637 5627 5627 5626 5627 5628 5632
5665 5667 5670 5675 5677 5682 5696 5696 5696 5695 5696 5695 5703 5705 5708 5708 5672 5694 5704 5714 5724 5732 5734 5719 5713 5700 5676 5668 5672 5668 5651 5650 5648 5648 5648 5643 5637 5628 5629 5619 5623 5625 5625 5626 5623
5658 5663 5667 5669 5677 5675 5693 5697 5697 5697 5696 5697 5705 5710 5709 5692 5683 5698 5702 5712 5724 5731 5719 5707 5694 5686 5672 5666 5665 5654 5645 5647 5646 5642 5640 5639 5627 5623 5615 5618 5620 5619 5616 5616 5617
5651 5658 5665 5666 5676 5673 5687 5697 5697 5700 5696 5698 5706 5710 5703 5682 5699 5699 5703 5712 5717 5725 5714 5716 5691 5686 5672 5660 5659 5646 5645 5640 5639 5638 5637 5637 5623 5625 5612 5615 5614 5612 5607 5607 5609
5645 5652 5661 5665 5673 5674 5681 5692 5697 5702 5698 5700 5706 5707 5693 5690 5703 5703 5706 5705 5709 5715 5709 5707 5704 5692 5670 5657 5652 5646 5639 5630 5629 5631 5626 5633 5612 5607 5613 5614 5610 5607 5605 5603 5602
5639 5648 5655 5661 5671 5671 5678 5687 5697 5700 5700 5703 5708 5703 5689 5707 5708 5707 5707 5707 5710 5712 5715 5709 5705 5684 5664 5657 5643 5638 5631 5618 5628 5632 5626 5623 5597 5609 5611 5610 5605 5604 5602 5602 5600
5634 5642 5648 5657 5667 5669 5676 5684 5695 5699 5699 5704 5704 5699 5686 5706 5700 5702 5703 5698 5702 5706 5708 5710 5702 5672 5660 5642 5628 5622 5617 5618 5627 5630 5632 5621 5600 5607 5609 5607 5603 5598 5596 5598 5595
5628 5636 5642 5653 5663 5668 5673 5680 5691 5697 5698 5700 5696 5687 5690 5683 5695 5697 5703 5704 5694 5697 5693 5684 5670 5656 5639 5636 5624 5628 5616 5621 5623 5625 5619 5611 5603 5601 5603 5598 5593 5588 5588 5589 5587
5620 5631 5635 5647 5657 5663 5668 5675 5674 5674 5679 5670 5673 5676 5682 5689 5697 5691 5698 5700 5691 5675 5658 5661 5648 5651 5642 5647 5644 5628 5621 5616 5616 5621 5613 5604 5596 5598 5599 5592 5586 5587 5589 5588 5585
5612 5624 5629 5642 5650 5656 5658 5661 5668 5675 5661 5671 5673 5677 5684 5685 5678 5685 5696 5683 5669 5652 5658 5647 5632 5638 5644 5641 5641 5634 5622 5611 5617 5619 5613 5601 5598 5597 5594 5590 5590 5586 5582 5579 5577
5604 5615 5624 5636 5644 5650 5651 5656 5664 5669 5653 5661 5666 5671 5675 5678 5666 5670 5680 5670 5657 5642 5640 5632 5637 5641 5641 5633 5632 5624 5620 5615 5615 5613 5607 5600 5592 5596 5598 5594 5591 5582 5576 5572 5567
5598 5608 5619 5630 5633 5639 5645 5651 5656 5660 5628 5644 5654 5663 5671 5670 5658 5670 5672 5667 5651 5637 5635 5628 5632 5635 5630 5626 5627 5622 5627 5621 5611 5602 5590 5599 5585 5591 5591 5588 5585 5577 5568 5565 5565
5593 5599 5609 5623 5623 5627 5640 5646 5650 5647 5601 5634 5648 5663 5663 5659 5656 5658 5666 5661 5640 5633 5637 5621 5624 5625 5621 5623 5628 5619 5622 5619 5613 5597 5590 5590 5580 5597 5590 5582 5581 5571 5563 5558 5558
5586 5591 5598 5613 5617 5621 5630 5638 5640 5586 5589 5627 5641 5642 5645 5648 5648 5652 5653 5655 5640 5628 5624 5616 5621 5618 5621 5622 5620 5617 5610 5598 5588 5587 5574 5590 5583 5594 5580 5598 5585 5574 5564 5557 5554
5581 5581 5590 5603 5605 5613 5623 5622 5581 5563 5621 5621 5631 5636 5637 5637 5638 5641 5637 5633 5623 5611 5613 5609 5607 5610 5617 5616 5617 5605 5589 5542 5569 5544 5563 5586 5577 5599 5601 5596 5593 5581 5566 5558 5552
5573 5575 5583 5589 5597 5604 5610 5592 5558 5594 5607 5626 5629 5628 5625 5631 5630 5630 5628 5620 5624 5615 5585 5595 5593 5602 5606 5608 5606 5600 5591 5549 5567 5558 5576 5582 5578 5586 5598 5591 5591 5583 5568 5555 5550
5565 5564 5570 5578 5587 5594 5584 5533 5570 5594 5612 5614 5624 5619 5618 5623 5624 5624 5620 5616 5623 5620 5611 5589 5595 5600 5601 5603 5602 5598 5579 5579 5562 5551 5560 5577 5586 5590 5589 5580 5575 5567 5557 5550 5546
5560 5556 5556 5571 5580 5580 5551 5565 5589 5604 5615 5617 5615 5618 5607 5613 5614 5616 5612 5620 5620 5623 5617 5606 5590 5596 5599 5601 5594 5594 5579 5560 5520 5540 5536 5563 5571 5560 5580 5574 5565 5556 5551 5547 5542
5553 5540 5547 5564 5568 5550 5521 5563 5591 5606 5614 5614 5613 5612 5611 5610 5608 5609 5608 5617 5620 5614 5612 5599 5588 5586 5593 5589 5584 5576 5566 5550 5539 5531 5531 5533 5571 5567 5571 5568 5558 5553 5548 5543 5538
5546 5518 5538 5553 5533 5507 5524 5573 5594 5607 5610 5613 5618 5617 5611 5610 5607 5605 5604 5611 5616 5612 5609 5600 5570 5563 5587 5583 5581 5581 5577 5561 5513 5525 5520 5520 5553 5567 5557 5558 5553 5548 5543 5537 5532
5536 5524 5530 5541 5520 5511 5550 5572 5590 5601 5604 5608 5611 5620 5616 5607 5600 5598 5600 5600 5607 5608 5598 5594 5565 5530 5573 5572 5564 5573 5540 5505 5499 5523 5538 5511 5556 5563 5556 5552 5550 5543 5535 5525 5522
5524 5503 5505 5512 5516 5537 5552 5562 5578 5597 5602 5609 5604 5609 5605 5600 5599 5591 5591 5592 5599 5598 5596 5591 5564 5556 5569 5568 5544 5525 5521 5499 5513 5498 5521 5530 5555 5557 5553 5544 5531 5526 5519 5512 5509
5520 5503 5519 5510 5520 5536 5548 5560 5573 5583 5600 5604 5602 5608 5605 5591 5592 5583 5582 5586 5590 5591 5581 5580 5554 5536 5540 5561 5560 5557 5543 5523 5514 5528 5536 5558 5534 5547 5538 5533 5524 5512 5507 5503 5498
5516 5515 5520 5532 5534 5534 5541 5552 5569 5580 5592 5598 5598 5600 5604 5595 5599 5576 5578 5578 5588 5579 5572 5560 5537 5557 5544 5558 5555 5558 5551 5533 5533 5537 5523 5528 5527 5526 5519 5512 5505 5500 5496 5490 5485
5533 5536 5539 5524 5529 5523 5528 5552 5566 5579 5585 5593 5591 5591 5592 5592 5591 5588 5583 5578 5581 5573 5556 5556 5539 5529 5533 5544 5549 5541 5557 5538 5537 5538 5533 5521 5528 5516 5504 5499 5493 5486 5481 5475 5468